Regional Weather Roundup
Issued by NWS

Home | Current Version | Previous Version | Text Only | Print | Product List | Glossary On
Versions: 1 2 3 4 5 6 7 8 9 10 11 12 13 14 15 16 17 18 19 20 21 22 23 24 25 26 27 28 29 30 31 32 33 34 35 36 37 38 39 40 41 42 43 44 45 46 47 48 49 50
054
ASUS45 KBOU 201707
RWRCO

WEATHER ROUNDUP FOR COLORADO
NATIONAL WEATHER SERVICE DENVER/BOULDER CO
1100 AM MDT WED SEP 20 2017

NOTE: "FAIR" INDICATES FEW OR NO CLOUDS BELOW 12000 FEET WITH NO
SIGNIFICANT WEATHER AND/OR OBSTRUCTIONS TO VISIBILITY.

COZ001>005-013-030-031-201800-
...NORTHWEST COLORADO...

CITY           SKY/WX    TMP DP  RH WIND       PRES   REMARKS
CRAIG          FAIR      55  36  48 E12       30.02F
HAYDEN         FAIR      49  38  65 E9        30.05F
MEEKER         FAIR      55  40  56 CALM      30.01F
RABBIT EARS PA CLOUDY    41  36  81 SW6       30.18S
STEAMBOAT SPGS PTSUNNY   44  38  80 CALM      30.04F
WALDEN         PTSUNNY   52  37  58 S10G20    30.07F
$$

COZ006>008-011-201800-
...WEST CENTRAL VALLEYS...

CITY           SKY/WX    TMP DP  RH WIND       PRES   REMARKS
GRAND JUNCTION FAIR      68  36  30 CALM      29.95F
MONTROSE       FAIR      72  33  24 W16       30.01F
EAGLE          SUNNY     59  32  36 CALM      30.02F
RIFLE          FAIR      63  37  38 VRB5      30.00F
DELTA          FAIR      73  32  22 CALM      29.99F
NUCLA          FAIR      72  32  23 SW18G28   30.07S
$$

COZ017>023-064>068-201800-
...SOUTHWEST COLORADO...

CITY           SKY/WX    TMP DP  RH WIND       PRES   REMARKS
DURANGO        FAIR      64  30  27 VRB6      30.14F
CORTEZ         FAIR      70  32  24 SW14      30.08S
PAGOSA SPRINGS FAIR      61  22  22 SW5       30.20S
TELLURIDE      FAIR      61  26  26 SE13G18   30.20F
WOLF CREEK PAS FAIR      43  23  45 S18G25    30.41F
$$

COZ009-010-012-014-032>034-037-058>063-201800-
...CENTRAL COLORADO...

CITY           SKY/WX    TMP DP  RH WIND       PRES   REMARKS
ASPEN          FAIR      65  29  25 VRB3      30.06S
BUENA VISTA    FAIR      65  24  21 SE18G26   30.08F
COPPER MTN     FAIR      48  21  34 W13G28    30.29F
BERTHOUD PASS  FAIR      37  32  81 W17G37    30.28F
COTTONWOOD PAS NOT AVBL
GUNNISON       FAIR      62  31  31 VRB5      30.12F
KREMMLING      FAIR      63  32  31 SE7       30.06F
LEADVILLE      FAIR      56  19  23 SW14      30.16S
MONARCH PASS   FAIR      43  25  49 SW32G45   30.41S
SALIDA         FAIR      63  27  25 SE12G18   30.15F
SUNLIGHT       FAIR      48  30  49 SW10G25   30.26S
WILKERSON PASS FAIR      50  25  37 SW16G26   30.26F
$$

COZ069>075-201800-
...SAN LUIS VALLEY/SANGRE DE CRISTO MOUNTAINS...

CITY           SKY/WX    TMP DP  RH WIND       PRES   REMARKS
ALAMOSA        FAIR      67  28  23 SW20G26   30.12F
DEL NORTE      FAIR      63  29  27 E8        30.14F
LA VETA PASS   FAIR      55  27  33 S17G32    30.37S
SAGUACHE       FAIR      59  28  31 SE7       30.15F
$$

COZ035-036-038>040-201800-
...NORTHERN COLORADO FRONT RANGE...

CITY           SKY/WX    TMP DP  RH WIND       PRES   REMARKS
DENVER INTL AP FAIR      69  30  23 SE21G28   29.94F
DMNS CITY PARK   N/A     60  33  35 W5G12     29.96F
AURORA         NOT AVBL
FRONT RANGE AP MOSUNNY   66  32  28 SE28G36   29.99S
ERIE MUNI ARPT FAIR      61  31  32 SW5       30.02F
BOULDER MUN AP FAIR      57  32  38 NW6       29.98F
CENTENNIAL     FAIR      60  35  39 W6        29.97F
BROOMFIELD     MOSUNNY   57  32  38 CALM      29.99F
FORT COLLINS   FAIR      61  32  33 SE14G22   29.99F
LONGMONT       FAIR      63  34  34 NW7       29.99F
$$

COZ041-046-047-076>085-087-088-201800-
...PIKES PEAK/PALMER DIVIDE AND SOUTHERN FOOTHILLS...

CITY           SKY/WX    TMP DP  RH WIND       PRES   REMARKS
COLO. SPRINGS  FAIR      59  31  34 S22G31    30.08F
A. F. ACADEMY  FAIR      58  28  31 SE18G26   30.06S
SCHRIEVER AFB  FAIR      56  26  30 S17G23    30.10F
CHEYENNE MTN   NOT AVBL
ELLICOTT         N/A    N/A N/A N/A SW16      30.08F
FALCON         FAIR      55  25  32 S25G31    30.10F
FORT CARSON    FAIR      59  28  31 S17G24    30.07F
LIMON          FAIR      60  27  28 S18G26    30.04F
MONUMENT HILL  FAIR      55  30  38 S29G37    30.06S
CANON CITY     SUNNY     61  34  36 E8        30.08F
WALSENBURG     FAIR      64  28  25 SE10G17   30.08F
TRINIDAD       FAIR      62  31  31 VRB7      30.09F
$$

COZ042>045-048>051-090-091-201800-
...NORTHEAST COLORADO...

CITY           SKY/WX    TMP DP  RH WIND       PRES   REMARKS
GREELEY ARPT   FAIR      63  32  31 SE17G28   29.99F
AKRON          FAIR      62  26  25 S8        30.01S
BURLINGTON     FAIR      67  24  19 E8        30.01F
WRAY           FAIR      68  23  18 NE7       29.99S
YUMA           FAIR      61  27  27 NW5       30.00S
STERLING       FAIR      63  34  34 SW5       29.98F
HOLYOKE        NOT AVBL
FORT MORGAN    FAIR      62  28  26 SE10G17   30.02S
$$

COZ086-089-092>099-201800-
...SOUTHEAST COLORADO...

CITY           SKY/WX    TMP DP  RH WIND       PRES   REMARKS
PUEBLO         FAIR      62  28  27 S5        30.05F
LA JUNTA       FAIR      65  32  29 SW7       30.05F
LAMAR          FAIR      67  31  26 VRB3      30.01F
SPRINGFIELD    NOT AVBL
$$




USA.gov is the U.S. government's official web portal to all federal, state and local government web resources and services.